Home > Weather > Périgueux > Past weeks

Flag for France Past Weather in Périgueux, Aquitaine, France — Yesterday and Last 2 Weeks

Now
70 °F

Sunny.


Feels Like: 70 °F
Forecast: 57 / 79 °F
Wind: 1 mph from East

Location: Bergerac Airport

Current Time: May 25, 2016 at 8:54:50 PM

Latest Report: May 25, 2016 at 8:00 PM


Visibility: 10 mi

Pressure: 29.86 "Hg

Humidity: 73%

Dew Point: 61 °F

Location of PérigueuxLocation

Past Weather in Périgueux — Graph

°F

Périgueux Temperature Yesterday

Maximum temperature yesterday: 72 °F (at 5:30 PM)
Minimum temperature yesterday: 41 °F (at 4:00 AM)
Average temperature yesterday: 57 °F

High & Low Weather Summary for the Past Weeks

 TemperatureHumidityPressure
High86 °F (May 21, 5:00 PM)100% (May 11, 6:00 AM)30.27 "Hg (May 11, 6:00 AM)
Low37 °F (May 16, 6:30 AM)35% (May 21, 3:30 PM)29.59 "Hg (May 11, 3:00 PM)
Average58 °F77%29.97 "Hg
* Reported May 10 7:00 PM — May 25 7:30 PM, Périgueux, Weather by CustomWeather, © 2016

Note: Actual official high and low records may vary slightly from our data, if they occured in-between our weather recording intervals... More about our weather records

Advertising

Périgueux Weather History for the Previous 24 Hours

Scroll right to see more
 ConditionsComfort  
Time TempWeatherWind HumidityBarometerVisibility
7:30 PM
Wed, May 25
72 °FSunny.No wind65%29.86 "Hg10 mi
7:00 PM72 °FSunny.2 mph61%29.86 "Hg10 mi
6:30 PM73 °FSunny.No wind53%29.86 "Hg10 mi
6:00 PM73 °FSunny.3 mph57%29.86 "Hg10 mi
5:30 PM73 °FSunny.2 mph53%29.86 "Hg10 mi
5:00 PM70 °FOvercast.3 mph64%29.86 "HgN/A
4:30 PM68 °FPassing clouds.5 mph69%29.86 "HgN/A
4:00 PM70 °FSunny.6 mph60%29.86 "HgN/A
3:30 PM68 °FPassing clouds.7 mph64%29.86 "HgN/A
3:00 PM66 °FPassing clouds.7 mph68%29.86 "HgN/A
2:30 PM66 °FPassing clouds.7 mph64%29.86 "HgN/A
2:00 PM68 °FPassing clouds.10 mph60%29.86 "HgN/A
1:30 PM68 °FPassing clouds.9 mph60%29.86 "HgN/A
1:00 PM66 °FPassing clouds.8 mph64%29.86 "HgN/A
12:30 PM64 °FPassing clouds.7 mph68%29.86 "HgN/A
12:00 PM64 °FPassing clouds.5 mph68%29.86 "HgN/A
11:30 AM63 °FPassing clouds.5 mph68%29.86 "HgN/A
11:00 AM63 °FMore clouds than sun.5 mph68%29.86 "HgN/A
10:30 AM63 °FPassing clouds.5 mph68%29.86 "HgN/A
10:00 AM61 °FSunny.1 mph72%29.83 "Hg10 mi
9:30 AM61 °FSunny.2 mph77%29.83 "Hg10 mi
9:00 AM59 °FSunny.2 mph82%29.83 "Hg10 mi
8:30 AM57 °FSunny.2 mph88%29.80 "Hg10 mi
8:00 AM55 °FSunny.1 mph88%29.80 "Hg10 mi
7:30 AM54 °FSunny.3 mph94%29.80 "Hg10 mi
7:00 AM54 °FClear.3 mph94%29.80 "Hg10 mi
6:30 AM54 °FMostly cloudy.6 mph94%29.80 "HgN/A
6:00 AM54 °FCool.6 mph94%29.80 "HgN/A
5:30 AM54 °FClear.5 mph94%29.80 "Hg10 mi
5:00 AM54 °FLight rain. Overcast.2 mph94%29.80 "HgN/A
4:30 AM54 °FLight rain. Clear.No wind94%29.80 "HgN/A
4:00 AM54 °FClear.2 mph94%29.80 "Hg10 mi
3:30 AM52 °FCool.2 mph94%29.80 "HgN/A
3:00 AM52 °FClear.6 mph94%29.80 "Hg10 mi
2:30 AM50 °FClear.3 mph94%29.80 "Hg10 mi
2:00 AM50 °FClear.No wind94%29.80 "Hg10 mi
1:30 AM52 °FClear.2 mph94%29.80 "Hg10 mi
1:00 AM52 °FClear.1 mph88%29.80 "Hg10 mi
12:30 AM54 °FClear.2 mph88%29.80 "Hg10 mi
12:00 AM54 °FClear.2 mph88%29.80 "Hg10 mi
11:30 PM
Tue, May 24
57 °FClear.No wind77%29.80 "Hg10 mi
11:00 PM57 °FClear.3 mph82%29.80 "Hg10 mi
10:30 PM61 °FClear.2 mph72%29.80 "Hg10 mi
10:00 PM63 °FSunny.1 mph68%29.80 "Hg10 mi
9:30 PM63 °FSunny.5 mph68%29.80 "Hg10 mi
9:00 PM64 °FSunny.2 mph64%29.80 "Hg10 mi
8:30 PM66 °FSunny.3 mph60%29.80 "Hg10 mi
8:00 PM68 °FSunny.5 mph53%29.83 "Hg10 mi
Weather by CustomWeather, © 2016

See weather overviewHow to use our weather pages